Location: Monfort
(47.1967°N, 0.2115°W)
Time: 11:55:20
(UTC+00:00)

USA 215 - Pass Details

Date: 24 October 2020
Orbit: 1102 x 1106 km, 123.0° (Epoch: 23 November)

Event Time Altitude Azimuth Distance (km) Brightness Sun altitude
Exits shadow 18:17:24 19° 79° (ENE) 2,356 4.4 -14.3°
Maximum altitude 18:21:47 45° 16° (NNE) 1,465 3.8 -15.1°
Drops below altitude 10° 18:27:55 10° 307° (NW) 2,966 6.3 -16.1°
Sets 18:30:30 0° 301° (WNW) 3,926 7.2 -16.6°
